When you browse on this site, cookies collect data to enhance your experience and personalize the content and advertising you see.
Visit our Privacy Policy to learn more. By continuing to use the site, you agree to this use of cookies and data.

Météo par heure à Tykhyi

Ce jour, 13 Août, Jeudi

Heure Température Précipitation Vent Pression Humidité
00:00 +14°C° 0 mm 3 m/s 707 mmHg 100%
01:00 +13°C° 0 mm 3 m/s 707 mmHg 100%
02:00 +13°C° 0 mm 3 m/s 707 mmHg 100%
03:00 +13°C° 0 mm 3 m/s 707 mmHg 98%
04:00 +14°C° 0 mm 2 m/s 707 mmHg 89%
05:00 +15°C° 0 mm 2 m/s 707 mmHg 84%
06:00 +15°C° 0 mm 2 m/s 706 mmHg 81%
07:00 +15°C° 0 mm 2 m/s 707 mmHg 83%
08:00 +16°C° 0 mm 2 m/s 707 mmHg 91%
09:00 +19°C° 0 mm 1 m/s 707 mmHg 87%
10:00 +20°C° 0 mm 1 m/s 708 mmHg 83%
11:00 +19°C° 0 mm 2 m/s 708 mmHg 84%
12:00 +20°C° 0 mm 2 m/s 708 mmHg 86%
13:00 +21°C° 0 mm 1 m/s 708 mmHg 87%
14:00 +22°C° 0 mm 1 m/s 708 mmHg 84%
15:00 +20°C° 0 mm 0 m/s 707 mmHg 81%
16:00 +20°C° 0 mm 0 m/s 707 mmHg 77%
17:00 +22°C° 0 mm 1 m/s 706 mmHg 78%
18:00 +22°C° 0 mm 1 m/s 706 mmHg 83%
19:00 +19°C° 0 mm 0 m/s 706 mmHg 93%
20:00 +19°C° 0 mm 0 m/s 706 mmHg 85%
21:00 +20°C° 0 mm 1 m/s 706 mmHg 88%
22:00 +20°C° 0 mm 1 m/s 706 mmHg 90%
23:00 +19°C° 0 mm 1 m/s 706 mmHg 90%

Demain, 14 Août, Vendredi

Heure Température Précipitation Vent Pression Humidité
00:00 +19°C° 0 mm 1 m/s 706 mmHg 89%
01:00 +19°C° 0 mm 1 m/s 706 mmHg 87%
02:00 +18°C° 0 mm 2 m/s 706 mmHg 87%
03:00 +17°C° 0 mm 2 m/s 705 mmHg 88%
04:00 +17°C° 0 mm 2 m/s 705 mmHg 88%
05:00 +17°C° 0 mm 2 m/s 705 mmHg 87%
06:00 +17°C° 0 mm 2 m/s 705 mmHg 85%
07:00 +17°C° 0 mm 2 m/s 705 mmHg 85%
08:00 +19°C° 0 mm 1 m/s 705 mmHg 90%
09:00 +20°C° 0 mm 1 m/s 705 mmHg 88%
10:00 +19°C° 0 mm 0 m/s 706 mmHg 84%
11:00 +22°C° 0 mm 1 m/s 706 mmHg 81%
12:00 +21°C° 0 mm 0 m/s 706 mmHg 79%
13:00 +21°C° 0 mm 0 m/s 706 mmHg 78%
14:00 +23°C° 0 mm 1 m/s 705 mmHg 81%
15:00 +24°C° 0 mm 2 m/s 705 mmHg 72%
16:00 +24°C° 0 mm 3 m/s 704 mmHg 73%
17:00 +22°C° 0 mm 3 m/s 704 mmHg 82%
18:00 +22°C° 0 mm 3 m/s 704 mmHg 90%
19:00 +20°C° 0 mm 4 m/s 704 mmHg 95%
20:00 +19°C° 0 mm 4 m/s 704 mmHg 100%
21:00 +19°C° 0 mm 3 m/s 704 mmHg 100%
22:00 +18°C° 0 mm 3 m/s 704 mmHg 99%
23:00 +18°C° 0 mm 3 m/s 704 mmHg 97%

Après-demain, 15 Août, Samedi

Heure Température Précipitation Vent Pression Humidité
00:00 +18°C° 0 mm 3 m/s 704 mmHg 97%
01:00 +18°C° 0 mm 3 m/s 703 mmHg 96%
02:00 +18°C° 0 mm 3 m/s 703 mmHg 95%
03:00 +17°C° 0 mm 2 m/s 703 mmHg 94%
04:00 +17°C° 0 mm 2 m/s 703 mmHg 91%
05:00 +17°C° 0 mm 2 m/s 702 mmHg 91%
06:00 +17°C° 0 mm 2 m/s 702 mmHg 91%
07:00 +17°C° 0 mm 2 m/s 702 mmHg 93%
08:00 +18°C° 0 mm 3 m/s 702 mmHg 93%
09:00 +19°C° 0 mm 3 m/s 703 mmHg 91%
10:00 +20°C° 0 mm 3 m/s 703 mmHg 93%
11:00 +21°C° 0 mm 3 m/s 703 mmHg 93%
12:00 +22°C° 0 mm 4 m/s 703 mmHg 93%
13:00 +22°C° 0 mm 5 m/s 703 mmHg 96%
14:00 +21°C° 0 mm 5 m/s 703 mmHg 97%
15:00 +20°C° 0 mm 7 m/s 702 mmHg 98%
16:00 +20°C° 0 mm 6 m/s 702 mmHg 98%
17:00 +20°C° 0 mm 6 m/s 702 mmHg 97%
18:00 +19°C° 0 mm 6 m/s 702 mmHg 99%
19:00 +17°C° 0 mm 6 m/s 702 mmHg 100%
20:00 +17°C° 0 mm 7 m/s 702 mmHg 100%
21:00 +16°C° 0 mm 6 m/s 702 mmHg 100%
22:00 +16°C° 0 mm 6 m/s 702 mmHg 100%
23:00 +15°C° 0 mm 6 m/s 702 mmHg 100%

16 Août, Dimanche

Heure Température Précipitation Vent Pression Humidité
00:00 +15°C° 0 mm 6 m/s 703 mmHg 100%
01:00 +15°C° 0 mm 5 m/s 702 mmHg 100%
02:00 +14°C° 0 mm 6 m/s 702 mmHg 100%
03:00 +14°C° 0 mm 5 m/s 702 mmHg 100%
04:00 +13°C° 0 mm 5 m/s 702 mmHg 100%
05:00 +13°C° 0 mm 5 m/s 702 mmHg 100%
06:00 +13°C° 0 mm 6 m/s 702 mmHg 100%
07:00 +14°C° 0 mm 6 m/s 703 mmHg 100%
08:00 +14°C° 0 mm 6 m/s 703 mmHg 100%
09:00 +16°C° 0 mm 6 m/s 704 mmHg 98%
10:00 +16°C° 0 mm 6 m/s 705 mmHg 99%
11:00 +16°C° 0 mm 6 m/s 705 mmHg 100%
12:00 +17°C° 0 mm 6 m/s 705 mmHg 99%
13:00 +19°C° 0 mm 6 m/s 705 mmHg 96%
14:00 +20°C° 0 mm 5 m/s 705 mmHg 93%
15:00 +20°C° 0.1 mm 5 m/s 705 mmHg 92%
16:00 +20°C° 0.6 mm 5 m/s 705 mmHg 93%
17:00 +20°C° 0.1 mm 5 m/s 705 mmHg 93%
18:00 +19°C° 0 mm 5 m/s 705 mmHg 93%
19:00 +17°C° 0 mm 5 m/s 705 mmHg 96%
20:00 +16°C° 0 mm 5 m/s 705 mmHg 99%
21:00 +15°C° 0 mm 5 m/s 705 mmHg 100%
22:00 +15°C° 0 mm 5 m/s 704 mmHg 100%
23:00 +14°C° 0 mm 4 m/s 704 mmHg 100%

17 Août, Lundi

Heure Température Précipitation Vent Pression Humidité
00:00 +14°C° 0.1 mm 3 m/s 704 mmHg 100%
01:00 +16°C° 0 mm 3 m/s 704 mmHg 100%
02:00 +14°C° 0 mm 4 m/s 704 mmHg 100%
03:00 +14°C° 0.3 mm 5 m/s 704 mmHg 100%
04:00 +14°C° 0.2 mm 4 m/s 704 mmHg 100%
05:00 +14°C° 0.5 mm 6 m/s 703 mmHg 100%
06:00 +14°C° 0.3 mm 6 m/s 703 mmHg 100%
07:00 +14°C° 0.1 mm 4 m/s 703 mmHg 100%
08:00 +14°C° 0 mm 5 m/s 703 mmHg 100%
09:00 +15°C° 0 mm 5 m/s 703 mmHg 100%
10:00 +15°C° 0 mm 6 m/s 704 mmHg 100%
11:00 +15°C° 0.5 mm 6 m/s 704 mmHg 100%
12:00 +15°C° 0.1 mm 5 m/s 704 mmHg 100%
13:00 +16°C° 0 mm 5 m/s 704 mmHg 100%
14:00 +17°C° 0 mm 4 m/s 704 mmHg 100%
15:00 +18°C° 0 mm 4 m/s 704 mmHg 100%
16:00 +18°C° 0 mm 4 m/s 703 mmHg 100%
17:00 +18°C° 0 mm 3 m/s 703 mmHg 100%
18:00 +18°C° 0 mm 3 m/s 703 mmHg 100%
19:00 +18°C° 0 mm 2 m/s 702 mmHg 100%
20:00 +17°C° 0 mm 2 m/s 702 mmHg 100%
21:00 +17°C° 0 mm 2 m/s 702 mmHg 100%
22:00 +17°C° 0.7 mm 2 m/s 702 mmHg 100%
23:00 +18°C° 3.3 mm 1 m/s 702 mmHg 100%

18 Août, Mardi

Heure Température Précipitation Vent Pression Humidité
00:00 +17°C° 0.2 mm 3 m/s 702 mmHg 100%
01:00 +17°C° 0 mm 2 m/s 702 mmHg 100%
02:00 +18°C° 0 mm 1 m/s 702 mmHg 100%
03:00 +18°C° 0 mm 1 m/s 701 mmHg 100%
04:00 +18°C° 0 mm 1 m/s 701 mmHg 100%
05:00 +17°C° 0 mm 2 m/s 701 mmHg 100%
06:00 +17°C° 0 mm 2 m/s 701 mmHg 100%
07:00 +17°C° 0 mm 2 m/s 701 mmHg 100%
08:00 +17°C° 0 mm 2 m/s 701 mmHg 100%
09:00 +17°C° 0 mm 2 m/s 701 mmHg 100%
10:00 +17°C° 0 mm 2 m/s 702 mmHg 100%
11:00 +18°C° 0 mm 3 m/s 702 mmHg 100%
12:00 +19°C° 0 mm 3 m/s 702 mmHg 100%
13:00 +19°C° 0 mm 3 m/s 702 mmHg 100%
14:00 +20°C° 0 mm 3 m/s 701 mmHg 99%
15:00 +20°C° 0 mm 3 m/s 701 mmHg 99%
16:00 +20°C° 0 mm 2 m/s 701 mmHg 95%
17:00 +20°C° 0 mm 2 m/s 701 mmHg 95%
18:00 +20°C° 0 mm 2 m/s 701 mmHg 94%
19:00 +19°C° 0 mm 2 m/s 701 mmHg 99%
20:00 +20°C° 0 mm 1 m/s 701 mmHg 100%
21:00 +17°C° 0 mm 0 m/s 701 mmHg 100%
22:00 +17°C° 0 mm 0 m/s 700 mmHg 100%
23:00 +16°C° 0 mm 0 m/s 701 mmHg 100%
Voir plus